Time,TemperatureF,DewpointF,PressureIn,WindDirection,WindDirectionDegrees,WindSpeedMPH,WindSpeedGustMPH,Humidity,HourlyPrecipIn,Conditions,Clouds,dailyrainin,SoftwareType,DateUTC
2013-03-09 00:03:00,43.0,-99.9,-100.00,North,0,0.0,3.0,-999,-99.99,,,-99.99,,2013-03-09 05:03:00,
2013-03-09 00:12:00,43.0,-99.9,-100.00,North,0,0.0,3.0,-999,-99.99,,,-99.99,,2013-03-09 05:12:00,
2013-03-09 00:22:00,43.0,-99.9,-100.00,North,0,0.0,3.0,-999,-99.99,,,-99.99,,2013-03-09 05:22:00,
2013-03-09 00:32:00,43.0,-99.9,-100.00,North,0,0.0,3.0,-999,-99.99,,,-99.99,,2013-03-09 05:32:00,
2013-03-09 00:40:00,39.0,-99.9,-100.00,North,0,0.0,2.0,-999,-99.99,,,-99.99,,2013-03-09 05:40:00,
2013-03-09 01:02:00,39.0,-99.9,-100.00,North,0,0.0,2.0,-999,-99.99,,,-99.99,,2013-03-09 06:02:00,
2013-03-09 01:11:00,39.0,-99.9,-100.00,North,0,0.0,2.0,-999,-99.99,,,-99.99,,2013-03-09 06:11:00,
2013-03-09 01:22:00,39.0,-99.9,-100.00,North,0,0.0,2.0,-999,-99.99,,,-99.99,,2013-03-09 06:22:00,
2013-03-09 01:32:00,39.0,-99.9,-100.00,North,0,0.0,2.0,-999,-99.99,,,-99.99,,2013-03-09 06:32:00,
2013-03-09 01:40:00,42.0,-99.9,-100.00,North,360,3.0,5.0,-999,-99.99,,,-99.99,,2013-03-09 06:40:00,
2013-03-09 02:01:00,42.0,-99.9,-100.00,North,360,3.0,5.0,-999,-99.99,,,-99.99,,2013-03-09 07:01:00,
2013-03-09 02:11:00,42.0,-99.9,-100.00,North,360,3.0,5.0,-999,-99.99,,,-99.99,,2013-03-09 07:11:00,
2013-03-09 02:22:00,42.0,-99.9,-100.00,North,360,3.0,5.0,-999,-99.99,,,-99.99,,2013-03-09 07:22:00,
2013-03-09 02:32:00,42.0,-99.9,-100.00,North,360,3.0,5.0,-999,-99.99,,,-99.99,,2013-03-09 07:32:00,
2013-03-09 02:40:00,43.0,-99.9,-100.00,North,10,5.0,7.0,-999,-99.99,,,-99.99,,2013-03-09 07:40:00,
2013-03-09 03:01:00,43.0,-99.9,-100.00,North,10,5.0,7.0,-999,-99.99,,,-99.99,,2013-03-09 08:01:00,
2013-03-09 03:11:00,43.0,-99.9,-100.00,North,10,5.0,7.0,-999,-99.99,,,-99.99,,2013-03-09 08:11:00,
2013-03-09 03:22:00,43.0,-99.9,-100.00,North,10,5.0,7.0,-999,-99.99,,,-99.99,,2013-03-09 08:22:00,
2013-03-09 03:32:00,43.0,-99.9,-100.00,North,10,5.0,7.0,-999,-99.99,,,-99.99,,2013-03-09 08:32:00,
2013-03-09 03:40:00,44.0,-99.9,-100.00,ENE,60,6.0,10.0,-999,-99.99,,,-99.99,,2013-03-09 08:40:00,
2013-03-09 04:02:00,44.0,-99.9,-100.00,ENE,60,6.0,10.0,-999,-99.99,,,-99.99,,2013-03-09 09:02:00,
2013-03-09 04:12:00,44.0,-99.9,-100.00,ENE,60,6.0,10.0,-999,-99.99,,,-99.99,,2013-03-09 09:12:00,
2013-03-09 04:21:00,44.0,-99.9,-100.00,ENE,60,6.0,10.0,-999,-99.99,,,-99.99,,2013-03-09 09:21:00,
2013-03-09 04:32:00,44.0,-99.9,-100.00,ENE,60,6.0,10.0,-999,-99.99,,,-99.99,,2013-03-09 09:32:00,
2013-03-09 04:40:00,41.0,-99.9,-100.00,NE,50,2.0,5.0,-999,-99.99,,,-99.99,,2013-03-09 09:40:00,
2013-03-09 05:01:00,41.0,-99.9,-100.00,NE,50,2.0,5.0,-999,-99.99,,,-99.99,,2013-03-09 10:01:00,
2013-03-09 05:11:00,41.0,-99.9,-100.00,NE,50,2.0,5.0,-999,-99.99,,,-99.99,,2013-03-09 10:11:00,
2013-03-09 05:22:00,41.0,-99.9,-100.00,NE,50,2.0,5.0,-999,-99.99,,,-99.99,,2013-03-09 10:22:00,
2013-03-09 05:32:00,41.0,-99.9,-100.00,NE,50,2.0,5.0,-999,-99.99,,,-99.99,,2013-03-09 10:32:00,
2013-03-09 05:40:00,41.0,-99.9,-100.00,North,360,2.0,7.0,-999,-99.99,,,-99.99,,2013-03-09 10:40:00,
2013-03-09 06:01:00,41.0,-99.9,-100.00,North,360,2.0,7.0,-999,-99.99,,,-99.99,,2013-03-09 11:01:00,
2013-03-09 06:11:00,41.0,-99.9,-100.00,North,360,2.0,7.0,-999,-99.99,,,-99.99,,2013-03-09 11:11:00,
2013-03-09 06:22:00,41.0,-99.9,-100.00,North,360,2.0,7.0,-999,-99.99,,,-99.99,,2013-03-09 11:22:00,
2013-03-09 06:32:00,41.0,-99.9,-100.00,North,360,2.0,7.0,-999,-99.99,,,-99.99,,2013-03-09 11:32:00,
2013-03-09 06:40:00,38.0,-99.9,-100.00,NNE,30,2.0,2.0,-999,-99.99,,,-99.99,,2013-03-09 11:40:00,
2013-03-09 07:02:00,38.0,-99.9,-100.00,NNE,30,2.0,2.0,-999,-99.99,,,-99.99,,2013-03-09 12:02:00,
2013-03-09 07:12:00,38.0,-99.9,-100.00,NNE,30,2.0,2.0,-999,-99.99,,,-99.99,,2013-03-09 12:12:00,
2013-03-09 07:22:00,38.0,-99.9,-100.00,NNE,30,2.0,2.0,-999,-99.99,,,-99.99,,2013-03-09 12:22:00,
2013-03-09 07:32:00,38.0,-99.9,-100.00,NNE,30,2.0,2.0,-999,-99.99,,,-99.99,,2013-03-09 12:32:00,
2013-03-09 07:40:00,40.0,-99.9,-100.00,NNW,340,3.0,6.0,-999,-99.99,,,-99.99,,2013-03-09 12:40:00,
2013-03-09 08:02:00,40.0,-99.9,-100.00,NNW,340,3.0,6.0,-999,-99.99,,,-99.99,,2013-03-09 13:02:00,
2013-03-09 08:11:00,40.0,-99.9,-100.00,NNW,340,3.0,6.0,-999,-99.99,,,-99.99,,2013-03-09 13:11:00,
2013-03-09 08:22:00,40.0,-99.9,-100.00,NNW,340,3.0,6.0,-999,-99.99,,,-99.99,,2013-03-09 13:22:00,
2013-03-09 08:32:00,40.0,-99.9,-100.00,NNW,340,3.0,6.0,-999,-99.99,,,-99.99,,2013-03-09 13:32:00,
2013-03-09 08:40:00,42.0,-99.9,-100.00,NW,310,2.0,5.0,-999,-99.99,,,-99.99,,2013-03-09 13:40:00,
2013-03-09 09:01:00,42.0,-99.9,-100.00,NW,310,2.0,5.0,-999,-99.99,,,-99.99,,2013-03-09 14:01:00,
2013-03-09 09:11:00,42.0,-99.9,-100.00,NW,310,2.0,5.0,-999,-99.99,,,-99.99,,2013-03-09 14:11:00,
2013-03-09 09:22:00,42.0,-99.9,-100.00,NW,310,2.0,5.0,-999,-99.99,,,-99.99,,2013-03-09 14:22:00,
2013-03-09 09:32:00,42.0,-99.9,-100.00,NW,310,2.0,5.0,-999,-99.99,,,-99.99,,2013-03-09 14:32:00,
2013-03-09 09:40:00,48.0,-99.9,-100.00,NE,50,3.0,9.0,-999,-99.99,,,-99.99,,2013-03-09 14:40:00,
2013-03-09 10:02:00,48.0,-99.9,-100.00,NE,50,3.0,9.0,-999,-99.99,,,-99.99,,2013-03-09 15:02:00,
2013-03-09 10:12:00,48.0,-99.9,-100.00,NE,50,3.0,9.0,-999,-99.99,,,-99.99,,2013-03-09 15:12:00,
2013-03-09 10:22:00,48.0,-99.9,-100.00,NE,50,3.0,9.0,-999,-99.99,,,-99.99,,2013-03-09 15:22:00,
2013-03-09 10:32:00,48.0,-99.9,-100.00,NE,50,3.0,9.0,-999,-99.99,,,-99.99,,2013-03-09 15:32:00,
2013-03-09 10:40:00,51.0,-99.9,-100.00,North,10,7.0,8.0,-999,-99.99,,,-99.99,,2013-03-09 15:40:00,
2013-03-09 11:02:00,51.0,-99.9,-100.00,North,10,7.0,8.0,-999,-99.99,,,-99.99,,2013-03-09 16:02:00,
2013-03-09 11:12:00,51.0,-99.9,-100.00,North,10,7.0,8.0,-999,-99.99,,,-99.99,,2013-03-09 16:12:00,
2013-03-09 11:22:00,51.0,-99.9,-100.00,North,10,7.0,8.0,-999,-99.99,,,-99.99,,2013-03-09 16:22:00,
2013-03-09 11:32:00,51.0,-99.9,-100.00,North,10,7.0,8.0,-999,-99.99,,,-99.99,,2013-03-09 16:32:00,
2013-03-09 11:40:00,51.0,-99.9,-100.00,WNW,300,6.0,9.0,-999,-99.99,,,-99.99,,2013-03-09 16:40:00,
2013-03-09 12:01:00,51.0,-99.9,-100.00,WNW,300,6.0,9.0,-999,-99.99,,,-99.99,,2013-03-09 17:01:00,
2013-03-09 12:11:00,51.0,-99.9,-100.00,WNW,300,6.0,9.0,-999,-99.99,,,-99.99,,2013-03-09 17:11:00,
2013-03-09 12:22:00,51.0,-99.9,-100.00,WNW,300,6.0,9.0,-999,-99.99,,,-99.99,,2013-03-09 17:22:00,
2013-03-09 12:32:00,51.0,-99.9,-100.00,WNW,300,6.0,9.0,-999,-99.99,,,-99.99,,2013-03-09 17:32:00,
2013-03-09 12:40:00,53.0,-99.9,-100.00,WNW,290,8.0,9.0,-999,-99.99,,,-99.99,,2013-03-09 17:40:00,
2013-03-09 13:02:00,53.0,-99.9,-100.00,WNW,290,8.0,9.0,-999,-99.99,,,-99.99,,2013-03-09 18:02:00,
2013-03-09 13:11:00,53.0,-99.9,-100.00,WNW,290,8.0,9.0,-999,-99.99,,,-99.99,,2013-03-09 18:11:00,
2013-03-09 13:22:00,53.0,-99.9,-100.00,WNW,290,8.0,9.0,-999,-99.99,,,-99.99,,2013-03-09 18:22:00,
2013-03-09 13:32:00,53.0,-99.9,-100.00,WNW,290,8.0,9.0,-999,-99.99,,,-99.99,,2013-03-09 18:32:00,
2013-03-09 13:40:00,55.0,-99.9,-100.00,NW,320,9.0,10.0,-999,-99.99,,,-99.99,,2013-03-09 18:40:00,
2013-03-09 14:02:00,55.0,-99.9,-100.00,NW,320,9.0,10.0,-999,-99.99,,,-99.99,,2013-03-09 19:02:00,
2013-03-09 14:12:00,55.0,-99.9,-100.00,NW,320,9.0,10.0,-999,-99.99,,,-99.99,,2013-03-09 19:12:00,
2013-03-09 14:22:00,55.0,-99.9,-100.00,NW,320,9.0,10.0,-999,-99.99,,,-99.99,,2013-03-09 19:22:00,
2013-03-09 14:32:00,55.0,-99.9,-100.00,NW,320,9.0,10.0,-999,-99.99,,,-99.99,,2013-03-09 19:32:00,
2013-03-09 14:40:00,57.0,-99.9,-100.00,WNW,290,8.0,9.0,-999,-99.99,,,-99.99,,2013-03-09 19:40:00,
2013-03-09 15:02:00,57.0,-99.9,-100.00,WNW,290,8.0,9.0,-999,-99.99,,,-99.99,,2013-03-09 20:02:00,
2013-03-09 15:12:00,57.0,-99.9,-100.00,WNW,290,8.0,9.0,-999,-99.99,,,-99.99,,2013-03-09 20:12:00,
2013-03-09 15:22:00,57.0,-99.9,-100.00,WNW,290,8.0,9.0,-999,-99.99,,,-99.99,,2013-03-09 20:22:00,
2013-03-09 15:32:00,57.0,-99.9,-100.00,WNW,290,8.0,9.0,-999,-99.99,,,-99.99,,2013-03-09 20:32:00,
2013-03-09 15:40:00,59.0,-99.9,-100.00,NW,320,9.0,10.0,-999,-99.99,,,-99.99,,2013-03-09 20:40:00,
2013-03-09 16:02:00,59.0,-99.9,-100.00,NW,320,9.0,10.0,-999,-99.99,,,-99.99,,2013-03-09 21:02:00,
2013-03-09 16:12:00,59.0,-99.9,-100.00,NW,320,9.0,10.0,-999,-99.99,,,-99.99,,2013-03-09 21:12:00,
2013-03-09 16:22:00,59.0,-99.9,-100.00,NW,320,9.0,10.0,-999,-99.99,,,-99.99,,2013-03-09 21:22:00,
2013-03-09 16:32:00,59.0,-99.9,-100.00,NW,320,9.0,10.0,-999,-99.99,,,-99.99,,2013-03-09 21:32:00,
2013-03-09 16:40:00,60.0,-99.9,-100.00,NW,320,8.0,8.0,-999,-99.99,,,-99.99,,2013-03-09 21:40:00,
2013-03-09 17:01:00,60.0,-99.9,-100.00,NW,320,8.0,8.0,-999,-99.99,,,-99.99,,2013-03-09 22:01:00,
2013-03-09 17:11:00,60.0,-99.9,-100.00,NW,320,8.0,8.0,-999,-99.99,,,-99.99,,2013-03-09 22:11:00,
2013-03-09 17:22:00,60.0,-99.9,-100.00,NW,320,8.0,8.0,-999,-99.99,,,-99.99,,2013-03-09 22:22:00,
2013-03-09 17:32:00,60.0,-99.9,-100.00,NW,320,8.0,8.0,-999,-99.99,,,-99.99,,2013-03-09 22:32:00,
2013-03-09 17:40:00,60.0,-99.9,-100.00,NW,310,6.0,7.0,-999,-99.99,,,-99.99,,2013-03-09 22:40:00,
2013-03-09 18:01:00,60.0,-99.9,-100.00,NW,310,6.0,7.0,-999,-99.99,,,-99.99,,2013-03-09 23:01:00,
2013-03-09 18:11:00,60.0,-99.9,-100.00,NW,310,6.0,7.0,-999,-99.99,,,-99.99,,2013-03-09 23:11:00,
2013-03-09 18:22:00,60.0,-99.9,-100.00,NW,310,6.0,7.0,-999,-99.99,,,-99.99,,2013-03-09 23:22:00,
2013-03-09 18:32:00,60.0,-99.9,-100.00,NW,310,6.0,7.0,-999,-99.99,,,-99.99,,2013-03-09 23:32:00,
2013-03-09 18:40:00,57.0,-99.9,-100.00,North,360,1.0,2.0,-999,-99.99,,,-99.99,,2013-03-09 23:40:00,
2013-03-09 19:02:00,57.0,-99.9,-100.00,North,360,1.0,2.0,-999,-99.99,,,-99.99,,2013-03-10 00:02:00,
2013-03-09 19:12:00,57.0,-99.9,-100.00,North,360,1.0,2.0,-999,-99.99,,,-99.99,,2013-03-10 00:12:00,
2013-03-09 19:22:00,57.0,-99.9,-100.00,North,360,1.0,2.0,-999,-99.99,,,-99.99,,2013-03-10 00:22:00,
2013-03-09 19:32:00,57.0,-99.9,-100.00,North,360,1.0,2.0,-999,-99.99,,,-99.99,,2013-03-10 00:32:00,
2013-03-09 19:40:00,54.0,-99.9,-100.00,SE,130,1.0,2.0,-999,-99.99,,,-99.99,,2013-03-10 00:40:00,
2013-03-09 20:01:00,54.0,-99.9,-100.00,SE,130,1.0,2.0,-999,-99.99,,,-99.99,,2013-03-10 01:01:00,
2013-03-09 20:11:00,54.0,-99.9,-100.00,SE,130,1.0,2.0,-999,-99.99,,,-99.99,,2013-03-10 01:11:00,
2013-03-09 20:22:00,54.0,-99.9,-100.00,SE,130,1.0,2.0,-999,-99.99,,,-99.99,,2013-03-10 01:22:00,
2013-03-09 20:32:00,54.0,-99.9,-100.00,SE,130,1.0,2.0,-999,-99.99,,,-99.99,,2013-03-10 01:32:00,
2013-03-09 20:40:00,53.0,-99.9,-100.00,North,350,1.0,2.0,-999,-99.99,,,-99.99,,2013-03-10 01:40:00,
2013-03-09 21:01:00,53.0,-99.9,-100.00,North,350,1.0,2.0,-999,-99.99,,,-99.99,,2013-03-10 02:01:00,
2013-03-09 21:11:00,53.0,-99.9,-100.00,North,350,1.0,2.0,-999,-99.99,,,-99.99,,2013-03-10 02:11:00,
2013-03-09 21:22:00,53.0,-99.9,-100.00,North,350,1.0,2.0,-999,-99.99,,,-99.99,,2013-03-10 02:22:00,
2013-03-09 21:32:00,53.0,-99.9,-100.00,North,350,1.0,2.0,-999,-99.99,,,-99.99,,2013-03-10 02:32:00,
2013-03-09 21:40:00,53.0,-99.9,-100.00,North,0,0.0,1.0,-999,-99.99,,,-99.99,,2013-03-10 02:40:00,
2013-03-09 22:02:00,53.0,-99.9,-100.00,North,0,0.0,1.0,-999,-99.99,,,-99.99,,2013-03-10 03:02:00,
2013-03-09 22:12:00,53.0,-99.9,-100.00,North,0,0.0,1.0,-999,-99.99,,,-99.99,,2013-03-10 03:12:00,
2013-03-09 22:22:00,53.0,-99.9,-100.00,North,0,0.0,1.0,-999,-99.99,,,-99.99,,2013-03-10 03:22:00,
2013-03-09 22:32:00,53.0,-99.9,-100.00,North,0,0.0,1.0,-999,-99.99,,,-99.99,,2013-03-10 03:32:00,
2013-03-09 22:40:00,49.0,-99.9,-100.00,East,100,2.0,2.0,-999,-99.99,,,-99.99,,2013-03-10 03:40:00,
2013-03-09 23:02:00,49.0,-99.9,-100.00,East,100,2.0,2.0,-999,-99.99,,,-99.99,,2013-03-10 04:02:00,
2013-03-09 23:11:00,49.0,-99.9,-100.00,East,100,2.0,2.0,-999,-99.99,,,-99.99,,2013-03-10 04:11:00,
2013-03-09 23:22:00,49.0,-99.9,-100.00,East,100,2.0,2.0,-999,-99.99,,,-99.99,,2013-03-10 04:22:00,
2013-03-09 23:32:00,49.0,-99.9,-100.00,East,100,2.0,2.0,-999,-99.99,,,-99.99,,2013-03-10 04:32:00,
2013-03-09 23:40:00,49.0,-99.9,-100.00,East,80,2.0,3.0,-999,-99.99,,,-99.99,,2013-03-10 04:40:00,